| time (UTC) | temp F | wind direction | speed MPH | gust MPH | rain 1hr in | rain 24hr in | rain mn in | humidity % | barometer mb |
| 20260901043748 | 59 | 69 | 0.0 | 0.0 | 0.00 | 0.33 | 0.00 | 96 | 1007.8 |
| 20260901043248 | 59 | 69 | 0.0 | 1.0 | 0.00 | 0.33 | 0.00 | 96 | 1007.8 |
| 20260901042752 | 59 | 69 | 0.0 | 1.0 | 0.00 | 0.34 | 0.00 | 96 | 1007.8 |
| 20260901041751 | 59 | 78 | 0.0 | 1.0 | 0.00 | 0.35 | 0.00 | 96 | 1007.8 |
| 20260901041248 | 59 | 79 | 0.0 | 1.0 | 0.00 | 0.35 | 0.00 | 96 | 1007.8 |
| 20260901040749 | 59 | 109 | 0.0 | 1.0 | 0.00 | 0.36 | 0.00 | 95 | 1007.8 |
| 20260901040248 | 59 | 79 | 0.0 | 0.0 | 0.00 | 0.37 | 0.00 | 95 | 1007.8 |
| 20260901035247 | 59 | 79 | 0.0 | 1.0 | 0.00 | 0.37 | 0.00 | 95 | 1007.8 |
| 20260901034747 | 58 | 79 | 0.0 | 1.0 | 0.00 | 0.37 | 0.00 | 95 | 1007.8 |
| 20260901034251 | 59 | 79 | 0.0 | 0.0 | 0.00 | 0.37 | 0.00 | 95 | 1007.8 |
| 20260901033748 | 58 | 79 | 0.0 | 1.0 | 0.00 | 0.37 | 0.00 | 95 | 1007.8 |
| 20260901033247 | 59 | 79 | 0.0 | 1.0 | 0.00 | 0.37 | 0.00 | 95 | 1007.8 |
| 20260901032748 | 59 | 97 | 0.0 | 1.0 | 0.00 | 0.37 | 0.00 | 95 | 1007.9 |
| 20260901032250 | 59 | 25 | 0.0 | 1.0 | 0.00 | 0.38 | 0.00 | 95 | 1007.8 |
| 20260901031747 | 58 | 180 | 0.0 | 0.0 | 0.00 | 0.38 | 0.00 | 95 | 1007.7 |
| 20260901031248 | 58 | 180 | 0.0 | 0.0 | 0.00 | 0.38 | 0.00 | 96 | 1007.8 |
| 20260901030748 | 58 | 180 | 0.0 | 3.0 | 0.00 | 0.38 | 0.00 | 96 | 1007.8 |
| 20260901030248 | 58 | 175 | 1.0 | 3.0 | 0.00 | 0.38 | 0.00 | 96 | 1007.8 |
| 20260901025749 | 58 | 120 | 0.0 | 2.0 | 0.00 | 0.38 | 0.00 | 96 | 1007.8 |
| 20260901025248 | 58 | 0 | 0.0 | 2.0 | 0.00 | 0.38 | 0.00 | 95 | 1007.8 |
| 20260901024747 | 58 | 27 | 0.0 | 1.0 | 0.00 | 0.38 | 0.00 | 95 | 1007.7 |
| 20260901023749 | 58 | 27 | 0.0 | 1.0 | 0.00 | 0.38 | 0.00 | 95 | 1007.8 |
| 20260901023249 | 58 | 27 | 0.0 | 2.0 | 0.00 | 0.38 | 0.00 | 95 | 1007.7 |
| 20260901022750 | 58 | 47 | 0.0 | 2.0 | 0.00 | 0.38 | 0.00 | 95 | 1007.7 |
| 20260901022248 | 58 | 296 | 0.0 | 0.0 | 0.00 | 0.38 | 0.00 | 95 | 1007.7 |
| 20260901021749 | 58 | 296 | 0.0 | 2.0 | 0.00 | 0.38 | 0.00 | 95 | 1007.6 |
| 20260901021248 | 58 | 296 | 0.0 | 2.0 | 0.00 | 0.38 | 0.00 | 95 | 1007.6 |
| 20260901020748 | 58 | 324 | 0.0 | 2.0 | 0.00 | 0.38 | 0.00 | 95 | 1007.7 |
| 20260901020247 | 58 | 144 | 0.0 | 2.0 | 0.00 | 0.38 | 0.00 | 95 | 1007.7 |
| 20260901015249 | 58 | 10 | 0.0 | 2.0 | 0.00 | 0.38 | 0.00 | 95 | 1007.7 |
| 20260901014732 | 58 | 45 | 1.0 | 2.0 | 0.00 | 0.38 | 0.00 | 95 | 1007.6 |
| 20260901013734 | 57 | 16 | 0.0 | 1.0 | 0.00 | 0.38 | 0.00 | 95 | 1007.6 |
| 20260901013232 | 57 | 16 | 0.0 | 1.0 | 0.00 | 0.38 | 0.00 | 95 | 1007.6 |
| 20260901012730 | 57 | 85 | 0.0 | 1.0 | 0.00 | 0.38 | 0.00 | 94 | 1007.6 |
| 20260901012230 | 57 | 85 | 0.0 | 1.0 | 0.00 | 0.38 | 0.00 | 94 | 1007.7 |
| 20260901011730 | 57 | 85 | 0.0 | 0.0 | 0.00 | 0.38 | 0.00 | 94 | 1007.7 |
| 20260901011229 | 57 | 86 | 0.0 | 0.0 | 0.00 | 0.38 | 0.00 | 94 | 1007.7 |
| 20260901010730 | 57 | 85 | 0.0 | 0.0 | 0.00 | 0.38 | 0.00 | 94 | 1007.7 |
| 20260901005732 | 57 | 86 | 0.0 | 0.0 | 0.00 | 0.38 | 0.00 | 94 | 1007.7 |
| 20260901005229 | 58 | 86 | 0.0 | 0.0 | 0.00 | 0.38 | 0.00 | 94 | 1007.7 |
| 20260901004729 | 58 | 85 | 0.0 | 0.0 | 0.00 | 0.38 | 0.00 | 94 | 1007.7 |
| 20260901004229 | 58 | 86 | 0.0 | 0.0 | 0.00 | 0.38 | 0.00 | 94 | 1007.7 |
| 20260901003729 | 58 | 85 | 0.0 | 0.0 | 0.00 | 0.38 | 0.00 | 94 | 1007.7 |
| 20260901003235 | 58 | 86 | 0.0 | 1.0 | 0.00 | 0.38 | 0.00 | 94 | 1007.7 |
| 20260901002731 | 58 | 86 | 0.0 | 1.0 | 0.00 | 0.38 | 0.00 | 94 | 1007.8 |
| 20260901001732 | 58 | 59 | 0.0 | 2.0 | 0.00 | 0.38 | 0.00 | 94 | 1007.9 |
| 20260901001228 | 58 | 61 | 0.0 | 0.0 | 0.00 | 0.38 | 0.00 | 94 | 1007.8 |
| 20260901000731 | 58 | 61 | 0.0 | 1.0 | 0.00 | 0.38 | 0.00 | 94 | 1007.9 |
| 20260901000230 | 58 | 61 | 0.0 | 1.0 | 0.00 | 0.38 | 0.00 | 94 | 1007.9 |
| 20260831235730 | 58 | 120 | 0.0 | 1.0 | 0.00 | 0.38 | 0.00 | 93 | 1007.9 |
| 20260831235229 | 58 | 117 | 0.0 | 1.0 | 0.00 | 0.38 | 0.00 | 93 | 1008.0 |
| 20260831234231 | 58 | 62 | 0.0 | 1.0 | 0.00 | 0.38 | 0.00 | 94 | 1008.0 |
| 20260831233729 | 58 | 44 | 0.0 | 1.0 | 0.00 | 0.38 | 0.00 | 94 | 1007.9 |
| 20260831232706 | 58 | 92 | 0.0 | 2.0 | 0.00 | 0.38 | 0.00 | 94 | 1008.0 |
| 20260831232206 | 59 | 99 | 0.0 | 2.0 | 0.00 | 0.38 | 0.00 | 94 | 1008.0 |
| 20260831231705 | 59 | 6 | 1.0 | 2.0 | 0.00 | 0.38 | 0.00 | 94 | 1008.0 |
| 20260831231205 | 59 | 8 | 0.0 | 2.0 | 0.00 | 0.38 | 0.00 | 94 | 1008.0 |
| 20260831230703 | 59 | 179 | 0.0 | 2.0 | 0.00 | 0.38 | 0.00 | 94 | 1008.0 |
| 20260831230204 | 59 | 55 | 1.0 | 2.0 | 0.00 | 0.38 | 0.00 | 94 | 1008.0 |
| 20260831225706 | 59 | 21 | 0.0 | 2.0 | 0.00 | 0.38 | 0.00 | 94 | 1008.1 |
| 20260831225201 | 59 | 113 | 0.0 | 2.0 | 0.00 | 0.38 | 0.00 | 93 | 1008.1 |
| 20260831224201 | 59 | 56 | 0.0 | 1.0 | 0.00 | 0.38 | 0.00 | 93 | 1008.1 |
| 20260831223703 | 59 | 130 | 0.0 | 1.0 | 0.00 | 0.38 | 0.00 | 93 | 1007.9 |
| 20260831223204 | 59 | 130 | 0.0 | 1.0 | 0.00 | 0.38 | 0.00 | 93 | 1008.0 |
| 20260831222701 | 59 | 130 | 0.0 | 1.0 | 0.00 | 0.38 | 0.00 | 93 | 1007.9 |
| 20260831222159 | 59 | 89 | 0.0 | 1.0 | 0.00 | 0.38 | 0.00 | 93 | 1008.0 |
| 20260831221654 | 59 | 89 | 0.0 | 1.0 | 0.00 | 0.38 | 0.00 | 93 | 1008.0 |
| 20260831221154 | 60 | 82 | 0.0 | 1.0 | 0.00 | 0.38 | 0.00 | 93 | 1008.0 |
| 20260831220148 | 60 | 0 | 0.0 | 1.0 | 0.00 | 0.38 | 0.00 | 93 | 1008.0 |
| 20260831215148 | 60 | 8 | 0.0 | 1.0 | 0.00 | 0.38 | 0.00 | 93 | 1008.1 |
| 20260831214646 | 60 | 76 | 0.0 | 0.0 | 0.00 | 0.38 | 0.00 | 93 | 1008.0 |
| 20260831214148 | 60 | 76 | 0.0 | 0.0 | 0.00 | 0.38 | 0.00 | 92 | 1007.9 |
| 20260831213647 | 60 | 76 | 0.0 | 1.0 | 0.00 | 0.39 | 0.00 | 92 | 1007.9 |
| 20260831213149 | 60 | 76 | 0.0 | 1.0 | 0.00 | 0.39 | 0.00 | 92 | 1007.8 |
| 20260831212649 | 60 | 76 | 0.0 | 1.0 | 0.00 | 0.39 | 0.00 | 92 | 1007.8 |
| 20260831212148 | 60 | 16 | 0.0 | 2.0 | 0.00 | 0.39 | 0.00 | 92 | 1007.9 |
| 20260831211649 | 60 | 1 | 0.0 | 2.0 | 0.00 | 0.39 | 0.00 | 92 | 1007.9 |
| 20260831210647 | 60 | 61 | 0.0 | 2.0 | 0.00 | 0.39 | 0.00 | 92 | 1007.8 |
| 20260831210149 | 60 | 0 | 0.0 | 2.0 | 0.00 | 0.39 | 0.00 | 92 | 1007.9 |
| 20260831205148 | 60 | 30 | 0.0 | 2.0 | 0.00 | 0.39 | 0.39 | 91 | 1007.8 |
| 20260831204648 | 60 | 0 | 1.0 | 3.0 | 0.00 | 0.39 | 0.39 | 91 | 1007.8 |
| 20260831204151 | 60 | 3 | 0.0 | 3.0 | 0.00 | 0.39 | 0.39 | 91 | 1007.9 |
| 20260831203646 | 60 | 90 | 1.0 | 3.0 | 0.00 | 0.39 | 0.39 | 92 | 1007.8 |
| 20260831203149 | 60 | 39 | 0.0 | 2.0 | 0.00 | 0.39 | 0.39 | 92 | 1007.8 |
| 20260831202648 | 60 | 0 | 1.0 | 2.0 | 0.00 | 0.39 | 0.39 | 92 | 1007.7 |
| 20260831202148 | 60 | 27 | 1.0 | 2.0 | 0.00 | 0.39 | 0.39 | 92 | 1007.7 |
| 20260831201647 | 60 | 265 | 1.0 | 2.0 | 0.00 | 0.39 | 0.39 | 92 | 1007.5 |
| 20260831201152 | 60 | 290 | 0.0 | 2.0 | 0.00 | 0.39 | 0.39 | 92 | 1007.5 |
| 20260831200646 | 60 | 28 | 0.0 | 2.0 | 0.00 | 0.39 | 0.39 | 92 | 1007.5 |
| 20260831200146 | 61 | 16 | 0.0 | 2.0 | 0.00 | 0.39 | 0.39 | 92 | 1007.5 |
| 20260831195645 | 61 | 302 | 0.0 | 2.0 | 0.00 | 0.39 | 0.39 | 92 | 1007.5 |
| 20260831195148 | 61 | 30 | 0.0 | 2.0 | 0.00 | 0.39 | 0.39 | 92 | 1007.4 |
| 20260831194645 | 61 | 216 | 1.0 | 2.0 | 0.00 | 0.39 | 0.39 | 92 | 1007.5 |
| 20260831192647 | 61 | 293 | 0.0 | 3.0 | 0.00 | 0.39 | 0.39 | 92 | 1007.3 |
| 20260831192147 | 61 | 305 | 0.0 | 3.0 | 0.00 | 0.39 | 0.39 | 92 | 1007.3 |
| 20260831191644 | 61 | 0 | 1.0 | 3.0 | 0.00 | 0.39 | 0.39 | 92 | 1007.4 |
| 20260831190645 | 61 | 20 | 1.0 | 3.0 | 0.00 | 0.39 | 0.39 | 92 | 1007.3 |
| 20260831190147 | 61 | 34 | 1.0 | 5.0 | 0.00 | 0.39 | 0.39 | 92 | 1007.2 |
| 20260831185645 | 61 | 0 | 2.0 | 5.0 | 0.00 | 0.39 | 0.39 | 92 | 1007.2 |
| 20260831185147 | 61 | 0 | 1.0 | 2.0 | 0.00 | 0.39 | 0.39 | 92 | 1007.2 |
| 20260831184647 | 62 | 353 | 1.0 | 2.0 | 0.00 | 0.39 | 0.39 | 92 | 1007.1 |
| 20260831184149 | 62 | 86 | 0.0 | 4.0 | 0.00 | 0.39 | 0.39 | 92 | 1007.2 |
| 20260831183641 | 62 | 125 | 0.0 | 4.0 | 0.00 | 0.39 | 0.39 | 92 | 1007.0 |
| 20260831183144 | 62 | 341 | 1.0 | 3.0 | 0.00 | 0.39 | 0.39 | 92 | 1007.0 |
| 20260831182538 | 62 | 35 | 0.0 | 3.0 | 0.00 | 0.39 | 0.39 | 92 | 1006.9 |
| 20260831182043 | 62 | 10 | 1.0 | 5.0 | 0.00 | 0.39 | 0.39 | 92 | 1007.0 |
| 20260831181346 | 62 | 265 | 1.0 | 3.0 | 0.00 | 0.39 | 0.39 | 92 | 1007.0 |
| 20260831180432 | 62 | 21 | 1.0 | 5.0 | 0.00 | 0.39 | 0.39 | 92 | 1007.0 |
| 20260831175929 | 62 | 92 | 2.0 | 5.0 | 0.00 | 0.39 | 0.39 | 92 | 1006.9 |
| 20260831175434 | 62 | 92 | 2.0 | 3.0 | 0.00 | 0.39 | 0.39 | 92 | 1007.0 |
| 20260831175039 | 63 | 1 | 1.0 | 4.0 | 0.00 | 0.39 | 0.39 | 92 | 1006.9 |
| 20260831174515 | 63 | 4 | 1.0 | 7.0 | 0.00 | 0.39 | 0.39 | 92 | 1006.9 |
| 20260831174014 | 63 | 24 | 2.0 | 7.0 | 0.00 | 0.39 | 0.39 | 92 | 1006.8 |
| 20260831173516 | 63 | 265 | 1.0 | 4.0 | 0.00 | 0.39 | 0.39 | 92 | 1006.7 |
| 20260831173019 | 63 | 0 | 2.0 | 4.0 | 0.00 | 0.39 | 0.39 | 92 | 1006.7 |
| 20260831172512 | 63 | 341 | 2.0 | 3.0 | 0.00 | 0.39 | 0.39 | 92 | 1006.7 |
| 20260831172030 | 63 | 80 | 0.0 | 3.0 | 0.00 | 0.39 | 0.39 | 92 | 1006.7 |
| 20260831171355 | 63 | 47 | 0.0 | 4.0 | 0.00 | 0.39 | 0.39 | 92 | 1006.6 |
| 20260831170814 | 63 | 0 | 1.0 | 4.0 | 0.00 | 0.39 | 0.39 | 92 | 1006.7 |
| 20260831170316 | 64 | 99 | 1.0 | 5.0 | 0.00 | 0.39 | 0.39 | 92 | 1006.5 |
| 20260831165814 | 64 | 358 | 1.0 | 5.0 | 0.00 | 0.39 | 0.39 | 92 | 1006.5 |
| 20260831165316 | 64 | 343 | 2.0 | 4.0 | 0.00 | 0.39 | 0.39 | 92 | 1006.4 |
| 20260831164817 | 64 | 345 | 1.0 | 4.0 | 0.00 | 0.39 | 0.39 | 92 | 1006.4 |
| 20260831163814 | 64 | 305 | 1.0 | 3.0 | 0.00 | 0.39 | 0.39 | 92 | 1006.3 |
| 20260831163317 | 64 | 8 | 1.0 | 3.0 | 0.00 | 0.39 | 0.39 | 92 | 1006.2 |
| 20260831162816 | 64 | 28 | 1.0 | 4.0 | 0.00 | 0.39 | 0.39 | 92 | 1006.1 |
| 20260831162319 | 64 | 357 | 0.0 | 4.0 | 0.00 | 0.39 | 0.39 | 92 | 1006.0 |
| 20260831161814 | 64 | 6 | 1.0 | 3.0 | 0.00 | 0.39 | 0.39 | 92 | 1006.1 |
| 20260831161318 | 64 | 18 | 1.0 | 3.0 | 0.00 | 0.39 | 0.39 | 92 | 1006.1 |
| 20260831160813 | 64 | 278 | 1.0 | 5.0 | 0.00 | 0.39 | 0.39 | 92 | 1006.0 |
| 20260831160320 | 64 | 72 | 2.0 | 5.0 | 0.00 | 0.39 | 0.39 | 92 | 1005.9 |
| 20260831155813 | 64 | 23 | 0.0 | 3.0 | 0.00 | 0.39 | 0.39 | 92 | 1005.9 |
| 20260831155319 | 64 | 0 | 1.0 | 5.0 | 0.00 | 0.39 | 0.39 | 92 | 1005.9 |
| 20260831154816 | 64 | 0 | 1.0 | 5.0 | 0.00 | 0.39 | 0.39 | 92 | 1005.8 |
| 20260831154318 | 64 | 0 | 1.0 | 3.0 | 0.00 | 0.39 | 0.39 | 92 | 1005.8 |
| 20260831153319 | 64 | 0 | 1.0 | 3.0 | 0.00 | 0.39 | 0.39 | 93 | 1005.9 |
| 20260831152320 | 64 | 274 | 0.0 | 2.0 | 0.00 | 0.39 | 0.39 | 92 | 1005.9 |
| 20260831151819 | 64 | 17 | 0.0 | 3.0 | 0.00 | 0.39 | 0.39 | 92 | 1005.8 |
| 20260831151321 | 64 | 169 | 1.0 | 3.0 | 0.00 | 0.39 | 0.39 | 92 | 1005.8 |
| 20260831150813 | 64 | 85 | 1.0 | 4.0 | 0.00 | 0.39 | 0.39 | 92 | 1005.8 |
| 20260831150319 | 65 | 227 | 2.0 | 4.0 | 0.00 | 0.39 | 0.39 | 92 | 1005.8 |
| 20260831145814 | 65 | 11 | 0.0 | 3.0 | 0.00 | 0.39 | 0.39 | 92 | 1005.7 |
| 20260831144813 | 65 | 65 | 1.0 | 4.0 | 0.00 | 0.39 | 0.39 | 92 | 1005.8 |
| 20260831144317 | 65 | 336 | 1.0 | 6.0 | 0.00 | 0.39 | 0.39 | 92 | 1005.8 |
| 20260831143813 | 65 | 172 | 2.0 | 6.0 | 0.00 | 0.39 | 0.39 | 92 | 1005.6 |
| 20260831143318 | 65 | 0 | 0.0 | 2.0 | 0.00 | 0.39 | 0.39 | 92 | 1005.6 |
| 20260831142813 | 65 | 140 | 1.0 | 2.0 | 0.00 | 0.39 | 0.39 | 92 | 1005.6 |
| 20260831142317 | 66 | 6 | 1.0 | 2.0 | 0.00 | 0.39 | 0.39 | 92 | 1005.5 |
| 20260831141816 | 66 | 58 | 1.0 | 2.0 | 0.00 | 0.39 | 0.39 | 92 | 1005.5 |
| 20260831141314 | 66 | 20 | 1.0 | 3.0 | 0.00 | 0.39 | 0.39 | 91 | 1005.5 |
| 20260831140816 | 66 | 55 | 1.0 | 4.0 | 0.00 | 0.39 | 0.39 | 92 | 1005.4 |
| 20260831140320 | 66 | 27 | 1.0 | 4.0 | 0.00 | 0.39 | 0.39 | 91 | 1005.5 |
| 20260831135817 | 66 | 94 | 1.0 | 3.0 | 0.00 | 0.39 | 0.39 | 92 | 1005.4 |
| 20260831135317 | 66 | 7 | 1.0 | 3.0 | 0.00 | 0.39 | 0.39 | 92 | 1005.4 |
| 20260831134814 | 66 | 6 | 0.0 | 3.0 | 0.00 | 0.39 | 0.39 | 92 | 1005.3 |
| 20260831134319 | 66 | 52 | 0.0 | 3.0 | 0.00 | 0.39 | 0.39 | 92 | 1005.3 |
| 20260831133813 | 66 | 348 | 1.0 | 3.0 | 0.00 | 0.39 | 0.39 | 92 | 1005.2 |
| 20260831132320 | 66 | 278 | 1.0 | 5.0 | 0.00 | 0.39 | 0.39 | 92 | 1005.3 |
| 20260831131813 | 66 | 307 | 1.0 | 5.0 | 0.00 | 0.39 | 0.39 | 93 | 1005.2 |
| 20260831130815 | 66 | 75 | 0.0 | 4.0 | 0.00 | 0.39 | 0.39 | 92 | 1005.0 |
| 20260831130321 | 66 | 0 | 1.0 | 4.0 | 0.00 | 0.39 | 0.39 | 92 | 1005.1 |
| 20260831125813 | 66 | 4 | 0.0 | 5.0 | 0.00 | 0.39 | 0.39 | 92 | 1005.1 |
| 20260831125314 | 66 | 334 | 2.0 | 5.0 | 0.00 | 0.39 | 0.39 | 92 | 1005.1 |
| 20260831124816 | 66 | 226 | 1.0 | 6.0 | 0.00 | 0.39 | 0.39 | 92 | 1005.0 |
| 20260831123813 | 66 | 323 | 1.0 | 3.0 | 0.00 | 0.39 | 0.39 | 92 | 1005.0 |
| 20260831123315 | 66 | 21 | 1.0 | 4.0 | 0.00 | 0.39 | 0.39 | 93 | 1005.0 |
| 20260831122309 | 66 | 97 | 1.0 | 4.0 | 0.00 | 0.39 | 0.39 | 92 | 1004.9 |
| 20260831121810 | 66 | 353 | 1.0 | 5.0 | 0.00 | 0.39 | 0.39 | 93 | 1004.8 |
| 20260831121308 | 66 | 13 | 2.0 | 5.0 | 0.00 | 0.39 | 0.39 | 93 | 1004.9 |
| 20260831120806 | 66 | 276 | 1.0 | 3.0 | 0.00 | 0.39 | 0.39 | 93 | 1004.8 |
| 20260831120307 | 66 | 312 | 1.0 | 4.0 | 0.00 | 0.39 | 0.39 | 94 | 1004.9 |
| 20260831115805 | 66 | 0 | 2.0 | 4.0 | 0.00 | 0.39 | 0.39 | 94 | 1005.0 |
| 20260831115306 | 66 | 133 | 1.0 | 3.0 | 0.00 | 0.39 | 0.39 | 93 | 1004.9 |
| 20260831114301 | 66 | 103 | 2.0 | 4.0 | 0.00 | 0.39 | 0.39 | 94 | 1004.9 |
| 20260831113807 | 66 | 51 | 0.0 | 3.0 | 0.00 | 0.39 | 0.39 | 94 | 1004.9 |
| 20260831113250 | 66 | 31 | 0.0 | 3.0 | 0.00 | 0.39 | 0.39 | 93 | 1004.9 |
| 20260831112751 | 66 | 1 | 1.0 | 5.0 | 0.00 | 0.39 | 0.39 | 94 | 1004.8 |
| 20260831112251 | 66 | 11 | 2.0 | 5.0 | 0.00 | 0.39 | 0.39 | 94 | 1004.8 |
| 20260831111749 | 66 | 252 | 1.0 | 3.0 | 0.00 | 0.39 | 0.39 | 94 | 1004.8 |
| 20260831111250 | 66 | 47 | 0.0 | 3.0 | 0.00 | 0.39 | 0.39 | 95 | 1004.7 |
| 20260831110734 | 66 | 31 | 1.0 | 3.0 | 0.00 | 0.39 | 0.39 | 95 | 1004.7 |
| 20260831110231 | 66 | 18 | 1.0 | 2.0 | 0.00 | 0.39 | 0.39 | 95 | 1004.6 |
| 20260831105226 | 65 | 4 | 2.0 | 7.0 | 0.00 | 0.39 | 0.39 | 95 | 1004.6 |
| 20260831104712 | 65 | 16 | 1.0 | 4.0 | 0.00 | 0.39 | 0.39 | 95 | 1004.6 |
| 20260831103719 | 65 | 23 | 1.0 | 3.0 | 0.00 | 0.39 | 0.39 | 95 | 1004.5 |
| 20260831103221 | 65 | 338 | 1.0 | 3.0 | 0.00 | 0.39 | 0.39 | 95 | 1004.5 |
| 20260831102717 | 65 | 123 | 1.0 | 3.0 | 0.00 | 0.39 | 0.39 | 95 | 1004.6 |
| 20260831102215 | 65 | 147 | 2.0 | 3.0 | 0.00 | 0.39 | 0.39 | 96 | 1004.5 |
| 20260831101716 | 65 | 337 | 1.0 | 3.0 | 0.00 | 0.39 | 0.39 | 95 | 1004.4 |
| 20260831101214 | 66 | 21 | 1.0 | 2.0 | 0.00 | 0.39 | 0.39 | 96 | 1004.4 |
| 20260831100712 | 65 | 83 | 1.0 | 3.0 | 0.00 | 0.39 | 0.39 | 96 | 1004.4 |
| 20260831100214 | 65 | 117 | 1.0 | 3.0 | 0.00 | 0.39 | 0.39 | 96 | 1004.3 |
| 20260831095714 | 65 | 38 | 1.0 | 3.0 | 0.00 | 0.39 | 0.39 | 96 | 1004.4 |
| 20260831095219 | 65 | 99 | 1.0 | 2.0 | 0.00 | 0.39 | 0.39 | 96 | 1004.4 |
| 20260831094713 | 65 | 138 | 1.0 | 2.0 | 0.00 | 0.39 | 0.39 | 96 | 1004.4 |
| 20260831094214 | 64 | 14 | 1.0 | 2.0 | 0.01 | 0.39 | 0.39 | 96 | 1004.4 |
| 20260831093713 | 64 | 16 | 0.0 | 3.0 | 0.01 | 0.39 | 0.39 | 96 | 1004.3 |
| 20260831093214 | 64 | 0 | 1.0 | 3.0 | 0.01 | 0.39 | 0.39 | 96 | 1004.3 |
| 20260831092715 | 64 | 337 | 0.0 | 3.0 | 0.02 | 0.39 | 0.39 | 96 | 1004.3 |
| 20260831092214 | 64 | 20 | 1.0 | 4.0 | 0.02 | 0.39 | 0.39 | 96 | 1004.2 |
| 20260831091713 | 64 | 154 | 1.0 | 4.0 | 0.04 | 0.39 | 0.39 | 96 | 1004.2 |
| 20260831091214 | 64 | 45 | 2.0 | 4.0 | 0.07 | 0.39 | 0.39 | 96 | 1004.1 |
| 20260831090712 | 64 | 69 | 1.0 | 3.0 | 0.09 | 0.39 | 0.39 | 96 | 1004.2 |
| 20260831090214 | 63 | 32 | 1.0 | 3.0 | 0.12 | 0.39 | 0.39 | 96 | 1004.1 |
| 20260831085712 | 64 | 92 | 1.0 | 3.0 | 0.13 | 0.28 | 0.39 | 96 | 1004.1 |
| 20260831085214 | 63 | 171 | 1.0 | 3.0 | 0.13 | 0.28 | 0.39 | 96 | 1004.0 |
| 20260831084215 | 63 | 4 | 2.0 | 6.0 | 0.13 | 0.28 | 0.39 | 96 | 1004.1 |
| 20260831083714 | 63 | 90 | 2.0 | 4.0 | 0.14 | 0.28 | 0.39 | 96 | 1004.0 |
| 20260831083217 | 63 | 137 | 0.0 | 4.0 | 0.15 | 0.28 | 0.39 | 96 | 1004.2 |
| 20260831082713 | 63 | 68 | 1.0 | 7.0 | 0.16 | 0.28 | 0.38 | 96 | 1004.1 |
| 20260831082214 | 63 | 79 | 1.0 | 7.0 | 0.15 | 0.28 | 0.37 | 96 | 1004.2 |
| 20260831081713 | 63 | 213 | 1.0 | 2.0 | 0.15 | 0.28 | 0.35 | 96 | 1004.3 |
| 20260831081219 | 63 | 148 | 0.0 | 2.0 | 0.13 | 0.28 | 0.32 | 96 | 1004.2 |
| 20260831080712 | 63 | 0 | 1.0 | 5.0 | 0.12 | 0.28 | 0.29 | 95 | 1004.2 |
| 20260831080220 | 63 | 0 | 1.0 | 5.0 | 0.09 | 0.28 | 0.28 | 95 | 1004.2 |
| 20260831075713 | 63 | 348 | 2.0 | 4.0 | 0.09 | 0.18 | 0.27 | 95 | 1004.2 |
| 20260831075214 | 63 | 3 | 1.0 | 4.0 | 0.09 | 0.18 | 0.27 | 95 | 1004.2 |
| 20260831074713 | 63 | 80 | 0.0 | 5.0 | 0.09 | 0.18 | 0.27 | 95 | 1004.2 |
| 20260831074220 | 63 | 151 | 1.0 | 5.0 | 0.09 | 0.18 | 0.26 | 95 | 1004.2 |
| 20260831073220 | 63 | 47 | 2.0 | 4.0 | 0.07 | 0.18 | 0.23 | 95 | 1004.2 |
| 20260831072712 | 63 | 149 | 2.0 | 4.0 | 0.06 | 0.18 | 0.22 | 95 | 1004.3 |
| 20260831072214 | 63 | 196 | 1.0 | 6.0 | 0.06 | 0.18 | 0.22 | 95 | 1004.2 |
| 20260831071712 | 63 | 140 | 2.0 | 6.0 | 0.04 | 0.18 | 0.20 | 95 | 1004.3 |
| 20260831071214 | 63 | 28 | 2.0 | 4.0 | 0.02 | 0.18 | 0.19 | 95 | 1004.4 |
| 20260831070713 | 63 | 34 | 0.0 | 3.0 | 0.02 | 0.18 | 0.18 | 95 | 1004.4 |
| 20260831070213 | 63 | 37 | 1.0 | 4.0 | 0.05 | 0.18 | 0.18 | 95 | 1004.4 |
| 20260831065218 | 63 | 0 | 1.0 | 4.0 | 0.02 | 0.13 | 0.17 | 96 | 1004.4 |
| 20260831064712 | 63 | 125 | 2.0 | 4.0 | 0.02 | 0.13 | 0.17 | 96 | 1004.4 |
| 20260831064220 | 62 | 89 | 1.0 | 5.0 | 0.03 | 0.13 | 0.17 | 96 | 1004.5 |
| 20260831063713 | 62 | 231 | 2.0 | 5.0 | 0.03 | 0.13 | 0.17 | 96 | 1004.5 |
| 20260831063214 | 62 | 94 | 1.0 | 3.0 | 0.04 | 0.13 | 0.17 | 95 | 1004.4 |
| 20260831062712 | 62 | 65 | 1.0 | 3.0 | 0.04 | 0.13 | 0.17 | 95 | 1004.5 |
| 20260831061712 | 62 | 228 | 1.0 | 6.0 | 0.04 | 0.13 | 0.17 | 95 | 1004.5 |
| 20260831061227 | 62 | 285 | 0.0 | 3.0 | 0.04 | 0.13 | 0.17 | 95 | 1004.6 |
| 20260831060708 | 62 | 148 | 1.0 | 3.0 | 0.08 | 0.13 | 0.16 | 95 | 1004.5 |
| 20260831060201 | 62 | 62 | 2.0 | 3.0 | 0.05 | 0.13 | 0.13 | 95 | 1004.6 |
| 20260831055700 | 62 | 202 | 1.0 | 4.0 | 0.03 | 0.09 | 0.12 | 95 | 1004.6 |
| 20260831055200 | 62 | 188 | 1.0 | 4.0 | 0.03 | 0.09 | 0.11 | 95 | 1004.6 |
| 20260831054653 | 62 | 279 | 0.0 | 3.0 | 0.02 | 0.09 | 0.09 | 95 | 1004.6 |
| 20260831053650 | 62 | 197 | 0.0 | 4.0 | 0.03 | 0.09 | 0.09 | 95 | 1004.8 |
| 20260831053151 | 62 | 214 | 1.0 | 4.0 | 0.03 | 0.09 | 0.09 | 95 | 1004.8 |
| 20260831052649 | 62 | 217 | 2.0 | 4.0 | 0.03 | 0.09 | 0.09 | 95 | 1004.8 |
| 20260831052148 | 62 | 66 | 0.0 | 5.0 | 0.03 | 0.09 | 0.09 | 95 | 1004.8 |
| 20260831051648 | 62 | 27 | 1.0 | 6.0 | 0.05 | 0.09 | 0.09 | 95 | 1004.8 |
| 20260831050647 | 62 | 192 | 2.0 | 5.0 | 0.06 | 0.09 | 0.09 | 95 | 1004.8 |
| 20260831050147 | 62 | 131 | 1.0 | 3.0 | 0.06 | 0.09 | 0.09 | 95 | 1005.0 |
| 20260831045631 | 62 | 149 | 1.0 | 3.0 | 0.06 | 0.02 | 0.08 | 95 | 1005.0 |
| 20260831045131 | 62 | 127 | 1.0 | 5.0 | 0.00 | 0.02 | 0.08 | 95 | 1005.1 |
| 20260831044630 | 62 | 138 | 2.0 | 5.0 | 0.00 | 0.02 | 0.08 | 95 | 1005.1 |